Location: Wildlife_Club
(35.6000°N, 81.4330°W)
Time: 20:56:52
(UTC-04:00)

A-11 Canister half - Pass Details

Date: 15 August 2020
Orbit: 1514 x 1686 km, 47.2° (Epoch: 26 September)

Event Time Altitude Azimuth Distance (km) Brightness Sun altitude
Rises 23:01:34 0° 303° (WNW) 4,827 12.7 -29.5°
Reaches altitude 10° 23:04:40 10° 305° (NW) 3,861 12.0 -30.0°
Maximum altitude 23:14:37 72° 30° (NNE) 1,737 9.1 -31.3°
Enters shadow 23:17:26 52° 94° (E) 2,007 9.2 -31.6°
